Location: Mohawk View
(42.7837°N, 73.7885°W)
Time: 16:51:43
(UTC+00:00)

SL-24 R/B - Pass Details

Date: 17 June 2021
Orbit: 617 x 1346 km, 98.0° (Epoch: 02 August)

Event Time Altitude Azimuth Distance (km) Brightness Sun altitude
Exits shadow 05:40:29 58° 200° (SSW) 918 4.5 -23.0°
Maximum altitude 05:41:23 72° 258° (WSW) 848 4.5 -23.0°
Drops below altitude 10° 05:47:11 10° 344° (NNW) 2,638 8.1 -22.8°
Sets 05:49:53 0° 346° (NNW) 3,705 9.1 -22.7°
